Year,Month,Day,Hour,Minute,Value (Times are PST for temperature in C)
2011,05,19,00,00,6.60
2011,05,19,00,01,6.60
2011,05,19,00,02,6.60
2011,05,19,00,03,6.60
2011,05,19,00,04,6.60
2011,05,19,00,05,6.60
2011,05,19,00,06,6.50
2011,05,19,00,07,6.50
2011,05,19,00,08,6.50
2011,05,19,00,09,6.50
2011,05,19,00,10,6.50
2011,05,19,00,11,6.50
2011,05,19,00,12,6.40
2011,05,19,00,13,6.50
2011,05,19,00,14,6.40
2011,05,19,00,15,6.40
2011,05,19,00,16,6.40
2011,05,19,00,17,6.40
2011,05,19,00,18,6.40
2011,05,19,00,19,6.40
2011,05,19,00,20,6.40
2011,05,19,00,21,6.40
2011,05,19,00,22,6.40
2011,05,19,00,23,6.40
2011,05,19,00,24,6.40
2011,05,19,00,25,6.40
2011,05,19,00,26,6.40
2011,05,19,00,27,6.40
2011,05,19,00,28,6.40
2011,05,19,00,29,6.40
2011,05,19,00,30,6.40
2011,05,19,00,31,6.40
2011,05,19,00,32,6.40
2011,05,19,00,33,6.30
2011,05,19,00,34,6.30
2011,05,19,00,35,6.30
2011,05,19,00,36,6.30
2011,05,19,00,37,6.30
2011,05,19,00,38,6.30
2011,05,19,00,39,6.30
2011,05,19,00,40,6.30
2011,05,19,00,41,6.30
2011,05,19,00,42,6.30
2011,05,19,00,43,6.30
2011,05,19,00,44,6.30
2011,05,19,00,45,6.30
2011,05,19,00,46,6.30
2011,05,19,00,47,6.30
2011,05,19,00,48,6.30
2011,05,19,00,49,6.30
2011,05,19,00,50,6.30
2011,05,19,00,51,6.30
2011,05,19,00,52,6.30
2011,05,19,00,53,6.30
2011,05,19,00,54,6.30
2011,05,19,00,55,6.30
2011,05,19,00,56,6.30
2011,05,19,00,57,6.30
2011,05,19,00,58,6.30
2011,05,19,00,59,6.20
2011,05,19,01,00,6.20
2011,05,19,01,01,6.20
2011,05,19,01,02,6.20
2011,05,19,01,03,6.20
2011,05,19,01,04,6.20
2011,05,19,01,05,6.20
2011,05,19,01,06,6.20
2011,05,19,01,07,6.20
2011,05,19,01,08,6.20
2011,05,19,01,09,6.20
2011,05,19,01,10,6.20
2011,05,19,01,11,6.20
2011,05,19,01,12,6.20
2011,05,19,01,13,6.20
2011,05,19,01,14,6.10
2011,05,19,01,15,6.10
2011,05,19,01,16,6.10
2011,05,19,01,17,6.10
2011,05,19,01,18,6.10
2011,05,19,01,19,6.10
2011,05,19,01,20,6.10
2011,05,19,01,21,6.10
2011,05,19,01,22,6.10
2011,05,19,01,23,6.10
2011,05,19,01,24,6.10
2011,05,19,01,25,6.00
2011,05,19,01,26,6.00
2011,05,19,01,27,6.00
2011,05,19,01,28,6.00
2011,05,19,01,29,6.00
2011,05,19,01,30,6.00
2011,05,19,01,31,6.00
2011,05,19,01,32,6.00
2011,05,19,01,33,6.00
2011,05,19,01,34,6.00
2011,05,19,01,35,6.00
2011,05,19,01,36,6.00
2011,05,19,01,37,6.00
2011,05,19,01,38,6.00
2011,05,19,01,39,5.90
2011,05,19,01,40,5.90
2011,05,19,01,41,5.90
2011,05,19,01,42,5.90
2011,05,19,01,43,5.90
2011,05,19,01,44,5.90
2011,05,19,01,45,5.90
2011,05,19,01,46,5.90
2011,05,19,01,47,5.90
2011,05,19,01,48,5.90
2011,05,19,01,49,5.90
2011,05,19,01,50,5.90
2011,05,19,01,51,5.90
2011,05,19,01,52,5.90
2011,05,19,01,53,5.90
2011,05,19,01,54,5.90
2011,05,19,01,55,5.90
2011,05,19,01,56,5.80
2011,05,19,01,57,5.80
2011,05,19,01,58,5.80
2011,05,19,01,59,5.80
2011,05,19,02,00,5.80
2011,05,19,02,01,5.80
2011,05,19,02,02,5.80
2011,05,19,02,03,5.80
2011,05,19,02,04,5.80
2011,05,19,02,05,5.80
2011,05,19,02,06,5.80
2011,05,19,02,07,5.80
2011,05,19,02,08,5.80
2011,05,19,02,09,5.80
2011,05,19,02,10,5.80
2011,05,19,02,11,5.80
2011,05,19,02,12,5.70
2011,05,19,02,13,5.70
2011,05,19,02,14,5.70
2011,05,19,02,15,5.70
2011,05,19,02,16,5.70
2011,05,19,02,17,5.60
2011,05,19,02,18,5.60
2011,05,19,02,19,5.60
2011,05,19,02,20,5.60
2011,05,19,02,21,5.50
2011,05,19,02,22,5.50
2011,05,19,02,23,5.50
2011,05,19,02,24,5.50
2011,05,19,02,25,5.40
2011,05,19,02,26,5.40
2011,05,19,02,27,5.40
2011,05,19,02,28,5.40
2011,05,19,02,29,5.40
2011,05,19,02,30,5.40
2011,05,19,02,31,5.40
2011,05,19,02,32,5.40
2011,05,19,02,33,5.40
2011,05,19,02,34,5.40
2011,05,19,02,35,5.40
2011,05,19,02,36,5.40
2011,05,19,02,37,5.30
2011,05,19,02,38,5.30
2011,05,19,02,39,5.30
2011,05,19,02,40,5.30
2011,05,19,02,41,5.30
2011,05,19,02,42,5.30
2011,05,19,02,43,5.30
2011,05,19,02,44,5.30
2011,05,19,02,45,5.30
2011,05,19,02,46,5.30
2011,05,19,02,47,5.30
2011,05,19,02,48,5.20
2011,05,19,02,49,5.20
2011,05,19,02,50,5.20
2011,05,19,02,51,5.20
2011,05,19,02,52,5.20
2011,05,19,02,53,5.20
2011,05,19,02,54,5.20
2011,05,19,02,55,5.20
2011,05,19,02,56,5.20
2011,05,19,02,57,5.20
2011,05,19,02,58,5.20
2011,05,19,02,59,5.20
2011,05,19,03,00,5.20
2011,05,19,03,01,5.10
2011,05,19,03,02,5.10
2011,05,19,03,03,5.10
2011,05,19,03,04,5.10
2011,05,19,03,05,5.10
2011,05,19,03,06,5.10
2011,05,19,03,07,5.00
2011,05,19,03,08,5.00
2011,05,19,03,09,5.00
2011,05,19,03,10,5.00
2011,05,19,03,11,4.90
2011,05,19,03,12,4.90
2011,05,19,03,13,4.90
2011,05,19,03,14,4.90
2011,05,19,03,15,4.90
2011,05,19,03,16,4.90
2011,05,19,03,17,4.90
2011,05,19,03,18,4.90
2011,05,19,03,19,4.90
2011,05,19,03,20,4.90
2011,05,19,03,21,4.90
2011,05,19,03,22,4.80
2011,05,19,03,23,4.80
2011,05,19,03,24,4.80
2011,05,19,03,25,4.80
2011,05,19,03,26,4.80
2011,05,19,03,27,4.80
2011,05,19,03,28,4.80
2011,05,19,03,29,4.80
2011,05,19,03,30,4.70
2011,05,19,03,31,4.70
2011,05,19,03,32,4.70
2011,05,19,03,33,4.70
2011,05,19,03,34,4.70
2011,05,19,03,35,4.70
2011,05,19,03,36,4.70
2011,05,19,03,37,4.70
2011,05,19,03,38,4.70
2011,05,19,03,39,4.70
2011,05,19,03,40,4.70
2011,05,19,03,41,4.70
2011,05,19,03,42,4.70
2011,05,19,03,43,4.70
2011,05,19,03,44,4.60
2011,05,19,03,45,4.60
2011,05,19,03,46,4.60
2011,05,19,03,47,4.60
2011,05,19,03,48,4.60
2011,05,19,03,49,4.60
2011,05,19,03,50,4.50
2011,05,19,03,51,4.50
2011,05,19,03,52,4.50
2011,05,19,03,53,4.50
2011,05,19,03,54,4.50
2011,05,19,03,55,4.40
2011,05,19,03,56,4.40
2011,05,19,03,57,4.40
2011,05,19,03,58,4.40
2011,05,19,03,59,4.40
2011,05,19,04,00,4.40
2011,05,19,04,01,4.40
2011,05,19,04,02,4.40
2011,05,19,04,03,4.40
2011,05,19,04,04,4.40
2011,05,19,04,05,4.40
2011,05,19,04,06,4.30
2011,05,19,04,07,4.30
2011,05,19,04,08,4.30
2011,05,19,04,09,4.30
2011,05,19,04,10,4.30
2011,05,19,04,11,4.30
2011,05,19,04,12,4.30
2011,05,19,04,13,4.30
2011,05,19,04,14,4.30
2011,05,19,04,15,4.30
2011,05,19,04,16,4.30
2011,05,19,04,17,4.30
2011,05,19,04,18,4.30
2011,05,19,04,19,4.30
2011,05,19,04,20,4.20
2011,05,19,04,21,4.20
2011,05,19,04,22,4.20
2011,05,19,04,23,4.20
2011,05,19,04,24,4.20
2011,05,19,04,25,4.20
2011,05,19,04,26,4.20
2011,05,19,04,27,4.20
2011,05,19,04,28,4.20
2011,05,19,04,29,4.20
2011,05,19,04,30,4.20
2011,05,19,04,31,4.20
2011,05,19,04,32,4.20
2011,05,19,04,33,4.20
2011,05,19,04,34,4.20
2011,05,19,04,35,4.20
2011,05,19,04,36,4.10
2011,05,19,04,37,4.10
2011,05,19,04,38,4.10
2011,05,19,04,39,4.10
2011,05,19,04,40,4.10
2011,05,19,04,41,4.10
2011,05,19,04,42,4.10
2011,05,19,04,43,4.10
2011,05,19,04,44,4.10
2011,05,19,04,45,4.10
2011,05,19,04,46,4.10
2011,05,19,04,47,4.10
2011,05,19,04,48,4.10
2011,05,19,04,49,4.10
2011,05,19,04,50,4.10
2011,05,19,04,51,4.10
2011,05,19,04,52,4.10
2011,05,19,04,53,4.00
2011,05,19,04,54,4.00
2011,05,19,04,55,4.00
2011,05,19,04,56,4.00
2011,05,19,04,57,3.90
2011,05,19,04,58,3.90
2011,05,19,04,59,3.90
2011,05,19,05,00,3.90
2011,05,19,05,01,3.90
2011,05,19,05,02,3.90
2011,05,19,05,03,3.90
2011,05,19,05,04,3.90
2011,05,19,05,05,3.90
2011,05,19,05,06,3.90
2011,05,19,05,07,3.90
2011,05,19,05,08,3.90
2011,05,19,05,09,3.90
2011,05,19,05,10,3.90
2011,05,19,05,11,3.90
2011,05,19,05,12,3.90
2011,05,19,05,13,3.90
2011,05,19,05,14,3.90
2011,05,19,05,15,3.90
2011,05,19,05,16,3.90
2011,05,19,05,17,3.80
2011,05,19,05,18,3.80
2011,05,19,05,19,3.80
2011,05,19,05,20,3.80
2011,05,19,05,21,3.80
2011,05,19,05,22,3.80
2011,05,19,05,23,3.80
2011,05,19,05,24,3.80
2011,05,19,05,25,3.80
2011,05,19,05,26,3.80
2011,05,19,05,27,3.80
2011,05,19,05,28,3.80
2011,05,19,05,29,3.80
2011,05,19,05,30,3.80
2011,05,19,05,31,3.80
2011,05,19,05,32,3.80
2011,05,19,05,33,3.80
2011,05,19,05,34,3.80
2011,05,19,05,35,3.70
2011,05,19,05,36,3.70
2011,05,19,05,37,3.70
2011,05,19,05,38,3.70
2011,05,19,05,39,3.70
2011,05,19,05,40,3.70
2011,05,19,05,41,3.70
2011,05,19,05,42,3.70
2011,05,19,05,43,3.70
2011,05,19,05,44,3.70
2011,05,19,05,45,3.70
2011,05,19,05,46,3.70
2011,05,19,05,47,3.70
2011,05,19,05,48,3.70
2011,05,19,05,49,3.70
2011,05,19,05,50,3.70
2011,05,19,05,51,3.70
2011,05,19,05,52,3.70
2011,05,19,05,53,3.70
2011,05,19,05,54,3.70
2011,05,19,05,55,3.70
2011,05,19,05,56,3.70
2011,05,19,05,57,3.70
2011,05,19,05,58,3.70
2011,05,19,05,59,3.70
2011,05,19,06,00,3.60
2011,05,19,06,01,3.60
2011,05,19,06,02,3.60
2011,05,19,06,03,3.60
2011,05,19,06,04,3.60
2011,05,19,06,05,3.60
2011,05,19,06,06,3.70
2011,05,19,06,07,3.70
2011,05,19,06,08,3.70
2011,05,19,06,09,3.70
2011,05,19,06,10,3.70
2011,05,19,06,11,3.70
2011,05,19,06,12,3.60
2011,05,19,06,13,3.60
2011,05,19,06,14,3.60
2011,05,19,06,15,3.60
2011,05,19,06,16,3.60
2011,05,19,06,17,3.60
2011,05,19,06,18,3.60
2011,05,19,06,19,3.60
2011,05,19,06,20,3.60
2011,05,19,06,21,3.60
2011,05,19,06,22,3.60
2011,05,19,06,23,3.60
2011,05,19,06,24,3.70
2011,05,19,06,25,3.70
2011,05,19,06,26,3.70
2011,05,19,06,27,3.70
2011,05,19,06,28,3.80
2011,05,19,06,29,3.80
2011,05,19,06,30,3.80
2011,05,19,06,31,3.80
2011,05,19,06,32,3.80
2011,05,19,06,33,3.80
2011,05,19,06,34,3.80
2011,05,19,06,35,3.90
2011,05,19,06,36,3.90
2011,05,19,06,37,3.90
2011,05,19,06,38,3.90
2011,05,19,06,39,3.90
2011,05,19,06,40,4.00
2011,05,19,06,41,4.00
2011,05,19,06,42,4.00
2011,05,19,06,43,4.10
2011,05,19,06,44,4.10
2011,05,19,06,45,4.20
2011,05,19,06,46,4.20
2011,05,19,06,47,4.30
2011,05,19,06,48,4.30
2011,05,19,06,49,4.40
2011,05,19,06,50,4.40
2011,05,19,06,51,4.50
2011,05,19,06,52,4.60
2011,05,19,06,53,4.60
2011,05,19,06,54,4.70
2011,05,19,06,55,4.70
2011,05,19,06,56,4.80
2011,05,19,06,57,4.80
2011,05,19,06,58,4.90
2011,05,19,06,59,5.00
2011,05,19,07,00,5.10
2011,05,19,07,01,5.10
2011,05,19,07,02,5.20
2011,05,19,07,03,5.30
2011,05,19,07,04,5.40
2011,05,19,07,05,5.50
2011,05,19,07,06,5.60
2011,05,19,07,07,5.70
2011,05,19,07,08,5.80
2011,05,19,07,09,5.90
2011,05,19,07,10,6.00
2011,05,19,07,11,6.10
2011,05,19,07,12,6.20
2011,05,19,07,13,6.30
2011,05,19,07,14,6.40
2011,05,19,07,15,6.50
2011,05,19,07,16,6.60
2011,05,19,07,17,6.70
2011,05,19,07,18,6.80
2011,05,19,07,19,6.90
2011,05,19,07,20,7.00
2011,05,19,07,21,7.10
2011,05,19,07,22,7.20
2011,05,19,07,23,7.30
2011,05,19,07,24,7.40
2011,05,19,07,25,7.50
2011,05,19,07,26,7.60
2011,05,19,07,27,7.70
2011,05,19,07,28,7.90
2011,05,19,07,29,8.00
2011,05,19,07,30,8.20
2011,05,19,07,31,8.30
2011,05,19,07,32,8.40
2011,05,19,07,33,8.50
2011,05,19,07,34,8.60
2011,05,19,07,35,8.70
2011,05,19,07,36,8.70
2011,05,19,07,37,8.80
2011,05,19,07,38,8.90
2011,05,19,07,39,9.00
2011,05,19,07,40,9.10
2011,05,19,07,41,9.20
2011,05,19,07,42,9.30
2011,05,19,07,43,9.40
2011,05,19,07,44,9.60
2011,05,19,07,45,9.70
2011,05,19,07,46,9.80
2011,05,19,07,47,9.90
2011,05,19,07,48,10.00
2011,05,19,07,49,10.10
2011,05,19,07,50,10.20
2011,05,19,07,51,10.30
2011,05,19,07,52,10.40
2011,05,19,07,53,10.40
2011,05,19,07,54,10.50
2011,05,19,07,55,10.60
2011,05,19,07,56,10.60
2011,05,19,07,57,10.70
2011,05,19,07,58,10.70
2011,05,19,07,59,10.80
2011,05,19,08,00,10.80
2011,05,19,08,01,10.90
2011,05,19,08,02,11.00
2011,05,19,08,03,11.00
2011,05,19,08,04,11.10
2011,05,19,08,05,11.10
2011,05,19,08,06,11.20
2011,05,19,08,07,11.20
2011,05,19,08,08,11.30
2011,05,19,08,09,11.30
2011,05,19,08,10,11.40
2011,05,19,08,11,11.50
2011,05,19,08,12,11.60
2011,05,19,08,13,11.60
2011,05,19,08,14,11.70
2011,05,19,08,15,11.80
2011,05,19,08,16,11.90
2011,05,19,08,17,12.00
2011,05,19,08,18,12.10
2011,05,19,08,19,12.20
2011,05,19,08,20,12.30
2011,05,19,08,21,12.40
2011,05,19,08,22,12.50
2011,05,19,08,23,12.50
2011,05,19,08,24,12.60
2011,05,19,08,25,12.70
2011,05,19,08,26,12.80
2011,05,19,08,27,12.80
2011,05,19,08,28,12.80
2011,05,19,08,29,12.90
2011,05,19,08,30,12.90
2011,05,19,08,31,13.00
2011,05,19,08,32,13.10
2011,05,19,08,33,13.10
2011,05,19,08,34,13.20
2011,05,19,08,35,13.30
2011,05,19,08,36,13.30
2011,05,19,08,37,13.40
2011,05,19,08,38,13.50
2011,05,19,08,39,13.60
2011,05,19,08,40,13.70
2011,05,19,08,41,13.80
2011,05,19,08,42,13.80
2011,05,19,08,43,13.80
2011,05,19,08,44,13.70
2011,05,19,08,45,13.70
2011,05,19,08,46,13.70
2011,05,19,08,47,13.70
2011,05,19,08,48,13.60
2011,05,19,08,49,13.60
2011,05,19,08,50,13.60
2011,05,19,08,51,13.60
2011,05,19,08,52,13.70
2011,05,19,08,53,13.70
2011,05,19,08,54,13.80
2011,05,19,08,55,13.70
2011,05,19,08,56,13.70
2011,05,19,08,57,13.70
2011,05,19,08,58,13.60
2011,05,19,08,59,13.60
2011,05,19,09,00,13.60
2011,05,19,09,01,13.60
2011,05,19,09,02,13.70
2011,05,19,09,03,13.70
2011,05,19,09,04,13.80
2011,05,19,09,05,13.80
2011,05,19,09,06,13.90
2011,05,19,09,07,14.00
2011,05,19,09,08,14.10
2011,05,19,09,09,14.00
2011,05,19,09,10,14.00
2011,05,19,09,11,13.90
2011,05,19,09,12,14.00
2011,05,19,09,13,14.00
2011,05,19,09,14,14.10
2011,05,19,09,15,14.10
2011,05,19,09,16,14.10
2011,05,19,09,17,14.10
2011,05,19,09,18,14.10
2011,05,19,09,19,14.10
2011,05,19,09,20,14.10
2011,05,19,09,21,14.00
2011,05,19,09,22,14.00
2011,05,19,09,23,13.90
2011,05,19,09,24,13.90
2011,05,19,09,25,13.80
2011,05,19,09,26,13.80
2011,05,19,09,27,13.80
2011,05,19,09,28,13.80
2011,05,19,09,29,13.80
2011,05,19,09,30,13.90
2011,05,19,09,31,13.90
2011,05,19,09,32,13.90
2011,05,19,09,33,13.90
2011,05,19,09,34,13.90
2011,05,19,09,35,13.90
2011,05,19,09,36,14.00
2011,05,19,09,37,13.90
2011,05,19,09,38,13.90
2011,05,19,09,39,14.00
2011,05,19,09,40,14.00
2011,05,19,09,41,14.10
2011,05,19,09,42,14.10
2011,05,19,09,43,14.10
2011,05,19,09,44,14.10
2011,05,19,09,45,14.20
2011,05,19,09,46,14.20
2011,05,19,09,47,14.30
2011,05,19,09,48,14.50
2011,05,19,09,49,14.60
2011,05,19,09,50,14.70
2011,05,19,09,51,14.90
2011,05,19,09,52,15.00
2011,05,19,09,53,15.00
2011,05,19,09,54,15.10
2011,05,19,09,55,15.10
2011,05,19,09,56,15.00
2011,05,19,09,57,15.00
2011,05,19,09,58,14.90
2011,05,19,09,59,14.90
2011,05,19,10,00,14.90
2011,05,19,10,01,14.90
2011,05,19,10,02,14.90
2011,05,19,10,03,15.00
2011,05,19,10,04,15.10
2011,05,19,10,05,15.10
2011,05,19,10,06,15.20
2011,05,19,10,07,15.20
2011,05,19,10,08,15.20
2011,05,19,10,09,15.20
2011,05,19,10,10,15.20
2011,05,19,10,11,15.10
2011,05,19,10,12,15.10
2011,05,19,10,13,15.00
2011,05,19,10,14,15.00
2011,05,19,10,15,14.90
2011,05,19,10,16,14.90
2011,05,19,10,17,14.90
2011,05,19,10,18,14.90
2011,05,19,10,19,14.80
2011,05,19,10,20,14.80
2011,05,19,10,21,14.80
2011,05,19,10,22,14.90
2011,05,19,10,23,14.90
2011,05,19,10,24,14.90
2011,05,19,10,25,14.80
2011,05,19,10,26,14.80
2011,05,19,10,27,14.80
2011,05,19,10,28,14.90
2011,05,19,10,29,14.90
2011,05,19,10,30,15.00
2011,05,19,10,31,15.10
2011,05,19,10,32,15.10
2011,05,19,10,33,15.20
2011,05,19,10,34,15.20
2011,05,19,10,35,15.20
2011,05,19,10,36,15.10
2011,05,19,10,37,15.20
2011,05,19,10,38,15.30
2011,05,19,10,39,15.30
2011,05,19,10,40,15.40
2011,05,19,10,41,15.40
2011,05,19,10,42,15.30
2011,05,19,10,43,15.30
2011,05,19,10,44,15.20
2011,05,19,10,45,15.10
2011,05,19,10,46,15.00
2011,05,19,10,47,15.00
2011,05,19,10,48,15.10
2011,05,19,10,49,15.20
2011,05,19,10,50,15.30
2011,05,19,10,51,15.40
2011,05,19,10,52,15.50
2011,05,19,10,53,15.60
2011,05,19,10,54,15.70
2011,05,19,10,55,15.70
2011,05,19,10,56,15.70
2011,05,19,10,57,15.60
2011,05,19,10,58,15.60
2011,05,19,10,59,15.70
2011,05,19,11,00,15.70
2011,05,19,11,01,15.70
2011,05,19,11,02,15.60
2011,05,19,11,03,15.50
2011,05,19,11,04,15.40
2011,05,19,11,05,15.30
2011,05,19,11,06,15.10
2011,05,19,11,07,15.10
2011,05,19,11,08,15.00
2011,05,19,11,09,15.10
2011,05,19,11,10,15.20
2011,05,19,11,11,15.10
2011,05,19,11,12,15.10
2011,05,19,11,13,15.20
2011,05,19,11,14,15.20
2011,05,19,11,15,15.30
2011,05,19,11,16,15.30
2011,05,19,11,17,15.40
2011,05,19,11,18,15.50
2011,05,19,11,19,15.60
2011,05,19,11,20,15.60
2011,05,19,11,21,15.50
2011,05,19,11,22,15.50
2011,05,19,11,23,15.40
2011,05,19,11,24,15.30
2011,05,19,11,25,15.30
2011,05,19,11,26,15.30
2011,05,19,11,27,15.20
2011,05,19,11,28,15.20
2011,05,19,11,29,15.30
2011,05,19,11,30,15.40
2011,05,19,11,31,15.40
2011,05,19,11,32,15.40
2011,05,19,11,33,15.50
2011,05,19,11,34,15.60
2011,05,19,11,35,15.70
2011,05,19,11,36,15.90
2011,05,19,11,37,16.00
2011,05,19,11,38,16.10
2011,05,19,11,39,16.20
2011,05,19,11,40,16.20
2011,05,19,11,41,16.10
2011,05,19,11,42,16.10
2011,05,19,11,43,16.10
2011,05,19,11,44,16.00
2011,05,19,11,45,16.10
2011,05,19,11,46,16.00
2011,05,19,11,47,16.00
2011,05,19,11,48,15.90
2011,05,19,11,49,15.80
2011,05,19,11,50,15.70
2011,05,19,11,51,15.70
2011,05,19,11,52,15.60
2011,05,19,11,53,15.70
2011,05,19,11,54,15.80
2011,05,19,11,55,16.00
2011,05,19,11,56,16.10
2011,05,19,11,57,16.00
2011,05,19,11,58,16.00
2011,05,19,11,59,15.90
2011,05,19,12,00,15.90
2011,05,19,12,01,15.80
2011,05,19,12,02,15.70
2011,05,19,12,03,15.60
2011,05,19,12,04,15.60
2011,05,19,12,05,15.60
2011,05,19,12,06,15.60
2011,05,19,12,07,15.60
2011,05,19,12,08,15.60
2011,05,19,12,09,15.70
2011,05,19,12,10,15.80
2011,05,19,12,11,15.90
2011,05,19,12,12,15.90
2011,05,19,12,13,15.90
2011,05,19,12,14,16.00
2011,05,19,12,15,16.00
2011,05,19,12,16,16.10
2011,05,19,12,17,16.20
2011,05,19,12,18,16.20
2011,05,19,12,19,16.20
2011,05,19,12,20,16.20
2011,05,19,12,21,16.20
2011,05,19,12,22,16.20
2011,05,19,12,23,16.10
2011,05,19,12,24,16.10
2011,05,19,12,25,16.10
2011,05,19,12,26,16.10
2011,05,19,12,27,16.10
2011,05,19,12,28,16.20
2011,05,19,12,29,16.30
2011,05,19,12,30,16.40
2011,05,19,12,31,16.50
2011,05,19,12,32,16.50
2011,05,19,12,33,16.60
2011,05,19,12,34,16.60
2011,05,19,12,35,16.70
2011,05,19,12,36,16.80
2011,05,19,12,37,17.00
2011,05,19,12,38,17.00
2011,05,19,12,39,17.10
2011,05,19,12,40,17.10
2011,05,19,12,41,17.20
2011,05,19,12,42,17.20
2011,05,19,12,43,17.20
2011,05,19,12,44,17.20
2011,05,19,12,45,17.20
2011,05,19,12,46,17.20
2011,05,19,12,47,17.10
2011,05,19,12,48,17.00
2011,05,19,12,49,17.00
2011,05,19,12,50,16.90
2011,05,19,12,51,16.80
2011,05,19,12,52,16.70
2011,05,19,12,53,16.60
2011,05,19,12,54,16.60
2011,05,19,12,55,16.60
2011,05,19,12,56,16.60
2011,05,19,12,57,16.60
2011,05,19,12,58,16.50
2011,05,19,12,59,16.40
2011,05,19,13,00,16.30
2011,05,19,13,01,16.30
2011,05,19,13,02,16.40
2011,05,19,13,03,16.40
2011,05,19,13,04,16.40
2011,05,19,13,05,16.30
2011,05,19,13,06,16.20
2011,05,19,13,07,16.10
2011,05,19,13,08,16.00
2011,05,19,13,09,16.00
2011,05,19,13,10,16.00
2011,05,19,13,11,16.00
2011,05,19,13,12,15.90
2011,05,19,13,13,16.00
2011,05,19,13,14,16.10
2011,05,19,13,15,16.30
2011,05,19,13,16,16.40
2011,05,19,13,17,16.50
2011,05,19,13,18,16.60
2011,05,19,13,19,16.60
2011,05,19,13,20,16.70
2011,05,19,13,21,16.70
2011,05,19,13,22,16.70
2011,05,19,13,23,16.70
2011,05,19,13,24,16.70
2011,05,19,13,25,16.70
2011,05,19,13,26,16.60
2011,05,19,13,27,16.50
2011,05,19,13,28,16.40
2011,05,19,13,29,16.30
2011,05,19,13,30,16.10
2011,05,19,13,31,15.90
2011,05,19,13,32,15.80
2011,05,19,13,33,15.80
2011,05,19,13,34,15.70
2011,05,19,13,35,15.70
2011,05,19,13,36,15.70
2011,05,19,13,37,15.80
2011,05,19,13,38,15.90
2011,05,19,13,39,15.90
2011,05,19,13,40,16.00
2011,05,19,13,41,16.00
2011,05,19,13,42,16.00
2011,05,19,13,43,16.10
2011,05,19,13,44,16.20
2011,05,19,13,45,16.30
2011,05,19,13,46,16.40
2011,05,19,13,47,16.50
2011,05,19,13,48,16.50
2011,05,19,13,49,16.50
2011,05,19,13,50,16.40
2011,05,19,13,51,16.40
2011,05,19,13,52,16.30
2011,05,19,13,53,16.30
2011,05,19,13,54,16.40
2011,05,19,13,55,16.50
2011,05,19,13,56,16.50
2011,05,19,13,57,16.50
2011,05,19,13,58,16.60
2011,05,19,13,59,16.60
2011,05,19,14,00,16.60
2011,05,19,14,01,16.70
2011,05,19,14,02,16.70
2011,05,19,14,03,16.70
2011,05,19,14,04,16.80
2011,05,19,14,05,16.80
2011,05,19,14,06,16.80
2011,05,19,14,07,16.80
2011,05,19,14,08,16.70
2011,05,19,14,09,16.50
2011,05,19,14,10,16.40
2011,05,19,14,11,16.40
2011,05,19,14,12,16.50
2011,05,19,14,13,16.50
2011,05,19,14,14,16.50
2011,05,19,14,15,16.50
2011,05,19,14,16,16.60
2011,05,19,14,17,16.70
2011,05,19,14,18,16.70
2011,05,19,14,19,16.70
2011,05,19,14,20,16.80
2011,05,19,14,21,16.90
2011,05,19,14,22,17.00
2011,05,19,14,23,17.10
2011,05,19,14,24,17.20
2011,05,19,14,25,17.30
2011,05,19,14,26,17.30
2011,05,19,14,27,17.40
2011,05,19,14,28,17.40
2011,05,19,14,29,17.50
2011,05,19,14,30,17.50
2011,05,19,14,31,17.60
2011,05,19,14,32,17.70
2011,05,19,14,33,17.70
2011,05,19,14,34,17.60
2011,05,19,14,35,17.60
2011,05,19,14,36,17.60
2011,05,19,14,37,17.60
2011,05,19,14,38,17.60
2011,05,19,14,39,17.60
2011,05,19,14,40,17.60
2011,05,19,14,41,17.50
2011,05,19,14,42,17.40
2011,05,19,14,43,17.30
2011,05,19,14,44,17.30
2011,05,19,14,45,17.30
2011,05,19,14,46,17.30
2011,05,19,14,47,17.30
2011,05,19,14,48,17.30
2011,05,19,14,49,17.30
2011,05,19,14,50,17.30
2011,05,19,14,51,17.40
2011,05,19,14,52,17.40
2011,05,19,14,53,17.40
2011,05,19,14,54,17.50
2011,05,19,14,55,17.50
2011,05,19,14,56,17.40
2011,05,19,14,57,17.40
2011,05,19,14,58,17.40
2011,05,19,14,59,17.40
2011,05,19,15,00,17.40
2011,05,19,15,01,17.40
2011,05,19,15,02,17.40
2011,05,19,15,03,17.50
2011,05,19,15,04,17.50
2011,05,19,15,05,17.50
2011,05,19,15,06,17.50
2011,05,19,15,07,17.40
2011,05,19,15,08,17.30
2011,05,19,15,09,17.30
2011,05,19,15,10,17.20
2011,05,19,15,11,17.20
2011,05,19,15,12,17.30
2011,05,19,15,13,17.30
2011,05,19,15,14,17.30
2011,05,19,15,15,17.40
2011,05,19,15,16,17.40
2011,05,19,15,17,17.40
2011,05,19,15,18,17.40
2011,05,19,15,19,17.40
2011,05,19,15,20,17.40
2011,05,19,15,21,17.40
2011,05,19,15,22,17.40
2011,05,19,15,23,17.40
2011,05,19,15,24,17.30
2011,05,19,15,25,17.30
2011,05,19,15,26,17.20
2011,05,19,15,27,17.20
2011,05,19,15,28,17.30
2011,05,19,15,29,17.30
2011,05,19,15,30,17.40
2011,05,19,15,31,17.40
2011,05,19,15,32,17.30
2011,05,19,15,33,17.30
2011,05,19,15,34,17.30
2011,05,19,15,35,17.30
2011,05,19,15,36,17.30
2011,05,19,15,37,17.30
2011,05,19,15,38,17.30
2011,05,19,15,39,17.30
2011,05,19,15,40,17.40
2011,05,19,15,41,17.40
2011,05,19,15,42,17.40
2011,05,19,15,43,17.40
2011,05,19,15,44,17.40
2011,05,19,15,45,17.50
2011,05,19,15,46,17.50
2011,05,19,15,47,17.60
2011,05,19,15,48,17.70
2011,05,19,15,49,17.70
2011,05,19,15,50,17.80
2011,05,19,15,51,17.80
2011,05,19,15,52,17.80
2011,05,19,15,53,17.80
2011,05,19,15,54,17.80
2011,05,19,15,55,17.80
2011,05,19,15,56,17.80
2011,05,19,15,57,17.80
2011,05,19,15,58,17.80
2011,05,19,15,59,17.90
2011,05,19,16,00,17.90
2011,05,19,16,01,18.00
2011,05,19,16,02,18.00
2011,05,19,16,03,18.00
2011,05,19,16,04,18.10
2011,05,19,16,05,18.10
2011,05,19,16,06,18.10
2011,05,19,16,07,18.10
2011,05,19,16,08,18.20
2011,05,19,16,09,18.20
2011,05,19,16,10,18.30
2011,05,19,16,11,18.40
2011,05,19,16,12,18.40
2011,05,19,16,13,18.40
2011,05,19,16,14,18.40
2011,05,19,16,15,18.40
2011,05,19,16,16,18.50
2011,05,19,16,17,18.50
2011,05,19,16,18,18.60
2011,05,19,16,19,18.70
2011,05,19,16,20,18.80
2011,05,19,16,21,18.90
2011,05,19,16,22,18.90
2011,05,19,16,23,18.90
2011,05,19,16,24,18.80
2011,05,19,16,25,18.80
2011,05,19,16,26,18.70
2011,05,19,16,27,18.60
2011,05,19,16,28,18.50
2011,05,19,16,29,18.50
2011,05,19,16,30,18.50
2011,05,19,16,31,18.50
2011,05,19,16,32,18.50
2011,05,19,16,33,18.50
2011,05,19,16,34,18.50
2011,05,19,16,35,18.50
2011,05,19,16,36,18.50
2011,05,19,16,37,18.50
2011,05,19,16,38,18.40
2011,05,19,16,39,18.40
2011,05,19,16,40,18.40
2011,05,19,16,41,18.40
2011,05,19,16,42,18.40
2011,05,19,16,43,18.40
2011,05,19,16,44,18.30
2011,05,19,16,45,18.20
2011,05,19,16,46,18.20
2011,05,19,16,47,18.10
2011,05,19,16,48,18.10
2011,05,19,16,49,18.10
2011,05,19,16,50,18.10
2011,05,19,16,51,18.10
2011,05,19,16,52,18.10
2011,05,19,16,53,18.10
2011,05,19,16,54,18.20
2011,05,19,16,55,18.20
2011,05,19,16,56,18.20
2011,05,19,16,57,18.30
2011,05,19,16,58,18.30
2011,05,19,16,59,18.20
2011,05,19,17,00,18.20
2011,05,19,17,01,18.30
2011,05,19,17,02,18.30
2011,05,19,17,03,18.30
2011,05,19,17,04,18.30
2011,05,19,17,05,18.40
2011,05,19,17,06,18.40
2011,05,19,17,07,18.30
2011,05,19,17,08,18.20
2011,05,19,17,09,18.10
2011,05,19,17,10,18.10
2011,05,19,17,11,18.00
2011,05,19,17,12,17.90
2011,05,19,17,13,17.80
2011,05,19,17,14,17.70
2011,05,19,17,15,17.70
2011,05,19,17,16,17.60
2011,05,19,17,17,17.60
2011,05,19,17,18,17.60
2011,05,19,17,19,17.60
2011,05,19,17,20,17.60
2011,05,19,17,21,17.60
2011,05,19,17,22,17.60
2011,05,19,17,23,17.60
2011,05,19,17,24,17.60
2011,05,19,17,25,17.60
2011,05,19,17,26,17.60
2011,05,19,17,27,17.60
2011,05,19,17,28,17.50
2011,05,19,17,29,17.50
2011,05,19,17,30,17.50
2011,05,19,17,31,17.50
2011,05,19,17,32,17.50
2011,05,19,17,33,17.50
2011,05,19,17,34,17.50
2011,05,19,17,35,17.50
2011,05,19,17,36,17.50
2011,05,19,17,37,17.50
2011,05,19,17,38,17.50
2011,05,19,17,39,17.50